Weather History for Ft. Stewart, GA

Change the Weather History Date:

Saturday, July 6, 2013

  Actual Average Record
Temperature  
Mean Temperature 79 °F -  
Max Temperature 86 °F 92 °F 103 °F (1980)
Min Temperature 72 °F 70 °F 64 °F (1976)
Cooling Degree Days 14    
Growing Degree Days 29 (Base 50)    
Moisture  
Dew Point 76 °F    
Average Humidity 94    
Maximum Humidity 100    
Minimum Humidity 74    
Precipitation  
Precipitation 0.24 in - - ()
Sea Level Pressure  
Sea Level Pressure 30.15 in    
Wind  
Wind Speed 4 mph (ESE)    
Max Wind Speed 15 mph    
Max Gust Speed 22 mph    
Visibility 9 miles    
Events Rain    
Averages and records for this station are not official NWS values.
T = Trace of Precipitation, MM = Missing Value Source: NWS Daily Summary

Daily Weather History Graph

Daily Weather History Graph

Search for Another Location

Airport:

Trip Planner

Search our weather history database for the weather conditions in past years. The results will help you decide how hot, cold, wet, or windy it might be!

Date:

Astronomy

Jul. 06, 2013 Rise Set
Actual Time 6:26 AM EDT 8:35 PM EDT
Civil Twilight 5:58 AM EDT 9:03 PM EDT
Nautical Twilight 5:24 AM EDT 9:37 PM EDT
Astronomical Twilight 4:47 AM EDT 10:14 PM EDT
Moon 5:08 AM EDT (7/6) 7:19 PM EDT (7/6)
Length of Visible Light 15h 05m
Length of Day
14h 09m
Waning Crescent, 2% of the Moon is Illuminated
Jul 6
Waning Crescent
Jul 8
New
Jul 15
First Quarter
Jul 22
Full
Jul 29
Last Quarter

Hourly Weather History & Observations

Time (EDT) Temp. Heat Index Dew Point Humidity Pressure Visibility Wind Dir Wind Speed Gust Speed Precip Events Conditions
12:58 AM 75.0 °F - 75.0 °F 100% 30.18 in 10.0 mi East 2.3 mph - N/A   Clear
1:58 AM 74.5 °F - 74.5 °F 100% 30.16 in 10.0 mi East 3.5 mph - N/A   Partly Cloudy
2:58 AM 74.5 °F - 74.5 °F 100% 30.17 in 10.0 mi ESE 2.3 mph - N/A   Clear
3:58 AM 73.9 °F - 73.9 °F 100% 30.16 in 10.0 mi Calm Calm - N/A   Mostly Cloudy
4:01 AM 73.4 °F - 73.4 °F 100% 30.14 in 10.0 mi Calm Calm - N/A Rain Light Rain
4:12 AM 73.4 °F - 73.4 °F 100% 30.14 in 10.0 mi Calm Calm - N/A   Mostly Cloudy
4:17 AM 73.4 °F - 73.4 °F 100% 30.14 in 10.0 mi Calm Calm - N/A   Overcast
4:33 AM 75.2 °F - 75.2 °F 100% 30.14 in 10.0 mi NW 1.2 mph - N/A   Light Drizzle
4:45 AM 75.2 °F - 75.2 °F 100% 30.14 in 10.0 mi Calm Calm - N/A   Mostly Cloudy
4:50 AM 75.2 °F - 75.2 °F 100% 30.14 in 10.0 mi ESE 2.3 mph - N/A   Mostly Cloudy
4:58 AM 74.7 °F - 74.7 °F 100% 30.15 in 10.0 mi ESE 2.3 mph - 0.00 in   Scattered Clouds
5:58 AM 72.9 °F - 72.9 °F 100% 30.15 in 10.0 mi Calm Calm - N/A   Clear
6:20 AM 73.4 °F - 73.4 °F 100% 30.15 in 8.0 mi Calm Calm - N/A Rain Rain
6:25 AM 73.4 °F - 73.4 °F 100% 30.15 in 6.0 mi Calm Calm - N/A Rain Rain
6:30 AM 73.4 °F - 73.4 °F 100% 30.15 in 6.0 mi Calm Calm - N/A Rain Light Rain
6:38 AM 73.4 °F - 73.4 °F 100% 30.15 in 10.0 mi Calm Calm - N/A   Mostly Cloudy
6:43 AM 73.4 °F - 73.4 °F 100% 30.15 in 10.0 mi Calm Calm - N/A   Mostly Cloudy
6:58 AM 73.9 °F - 73.9 °F 100% 30.16 in 10.0 mi Calm Calm - 0.02 in   Partly Cloudy
7:58 AM 76.5 °F - 76.5 °F 100% 30.17 in 10.0 mi East 3.5 mph - N/A   Scattered Clouds
8:58 AM 79.5 °F - 78.8 °F 98% 30.18 in 10.0 mi East 5.8 mph - N/A   Clear
9:33 AM 80.6 °F 87.1 °F 77.0 °F 89% 30.17 in 10.0 mi SE 8.1 mph - N/A   Mostly Cloudy
9:38 AM 78.8 °F - 77.0 °F 94% 30.18 in 4.0 mi ESE 11.5 mph 21.9 mph N/A Rain Light Rain
9:43 AM 77.0 °F - 75.2 °F 94% 30.18 in 1.5 mi East 12.7 mph 21.9 mph N/A Rain Heavy Rain
9:48 AM 75.2 °F - 73.4 °F 94% 30.18 in 1.8 mi East 9.2 mph 20.7 mph N/A Rain Light Rain
9:53 AM 75.2 °F - 75.2 °F 100% 30.18 in 5.0 mi ESE 6.9 mph - N/A Rain Light Rain
9:58 AM 74.8 °F - 74.7 °F 99% 30.19 in 6.0 mi ESE 5.8 mph - 0.13 in Rain Light Rain
10:09 AM 75.2 °F - 75.2 °F 100% 30.18 in 10.0 mi East 3.5 mph - N/A   Overcast
10:52 AM 77.0 °F - 77.0 °F 100% 30.19 in 9.0 mi East 8.1 mph - N/A   Drizzle
10:58 AM 76.6 °F - 76.6 °F 100% 30.19 in 9.0 mi ENE 5.8 mph - 0.00 in   Light Drizzle
11:02 AM 77.0 °F - 77.0 °F 100% 30.18 in 10.0 mi ENE 4.6 mph - N/A   Overcast
11:58 AM 79.7 °F - 78.3 °F 95% 30.18 in 10.0 mi Variable 3.5 mph - 0.00 in   Scattered Clouds
12:03 PM 80.6 °F 88.1 °F 78.8 °F 94% 30.17 in 10.0 mi SE 3.5 mph - N/A   Mostly Cloudy
12:18 PM 84.2 °F 94.1 °F 77.0 °F 79% 30.16 in 10.0 mi SE 10.4 mph - N/A   Scattered Clouds
12:33 PM 84.2 °F 94.1 °F 77.0 °F 79% 30.16 in 10.0 mi SSE 8.1 mph - N/A   Mostly Cloudy
12:38 PM 84.2 °F 94.1 °F 77.0 °F 79% 30.16 in 10.0 mi SE 10.4 mph - N/A   Mostly Cloudy
12:58 PM 86.7 °F 98.8 °F 77.4 °F 74% 30.17 in 10.0 mi ESE 12.7 mph 19.6 mph N/A   Mostly Cloudy
1:10 PM 84.2 °F 94.1 °F 77.0 °F 79% 30.16 in 6.0 mi SE 8.1 mph 18.4 mph N/A Rain Light Rain
1:46 PM 78.8 °F - 77.0 °F 94% 30.15 in 10.0 mi SE 8.1 mph - N/A   Mostly Cloudy
1:58 PM 81.5 °F 90.2 °F 78.6 °F 91% 30.16 in 10.0 mi ESE 11.5 mph - 0.07 in   Mostly Cloudy
2:39 PM 84.2 °F 96.1 °F 78.8 °F 84% 30.14 in 8.0 mi ESE 12.7 mph - N/A Rain Light Rain
2:48 PM 82.4 °F 92.4 °F 78.8 °F 89% 30.14 in 10.0 mi ESE 10.4 mph - N/A   Mostly Cloudy
2:58 PM 83.5 °F 95.5 °F 79.5 °F 88% 30.15 in 10.0 mi SE 12.7 mph 18.4 mph 0.01 in   Scattered Clouds
3:58 PM 82.9 °F 92.1 °F 77.2 °F 83% 30.14 in 10.0 mi SSE 5.8 mph - N/A   Mostly Cloudy
4:19 PM 82.4 °F 92.4 °F 78.8 °F 89% 30.12 in 6.0 mi SE 6.9 mph 19.6 mph N/A Rain Light Rain
4:25 PM 80.6 °F 88.1 °F 78.8 °F 94% 30.12 in 9.0 mi SE 6.9 mph - N/A   Mostly Cloudy
4:58 PM 83.5 °F 92.6 °F 76.6 °F 80% 30.13 in 10.0 mi ESE 13.8 mph 19.6 mph 0.01 in   Partly Cloudy
5:47 PM 82.4 °F 90.9 °F 77.0 °F 84% 30.12 in 10.0 mi SE 15.0 mph - N/A   Light Drizzle
5:58 PM 81.7 °F 88.7 °F 75.9 °F 83% 30.13 in 10.0 mi SE 8.1 mph 21.9 mph 0.00 in   Light Drizzle
5:59 PM 82.4 °F 90.9 °F 77.0 °F 84% 30.11 in 10.0 mi SE 9.2 mph 21.9 mph N/A   Scattered Clouds
6:58 PM 80.4 °F 86.1 °F 75.9 °F 86% 30.12 in 10.0 mi SE 12.7 mph - 0.00 in   Partly Cloudy
7:58 PM 78.8 °F - 75.4 °F 89% 30.13 in 10.0 mi SE 4.6 mph - N/A   Partly Cloudy
8:58 PM 77.2 °F - 76.1 °F 96% 30.13 in 10.0 mi ESE 3.5 mph - N/A   Mostly Cloudy
9:58 PM 76.6 °F - 76.6 °F 100% 30.15 in 10.0 mi ESE 4.6 mph - N/A   Partly Cloudy
10:58 PM 75.7 °F - 75.7 °F 100% 30.17 in 10.0 mi ESE 4.6 mph - N/A   Clear
11:58 PM 75.2 °F - 75.2 °F 100% 30.16 in 10.0 mi ESE 3.5 mph - N/A   Clear